Regional Weather Roundup
Issued by NWS

Home | Current Version | Previous Version | Text Only | Print | Product List | Glossary On
Versions: 1 2 3 4 5 6 7 8 9 10 11 12 13 14 15 16 17 18 19 20 21 22 23 24 25 26 27 28 29 30 31 32 33 34 35 36 37 38 39 40 41 42 43 44 45 46 47 48 49 50
000
ASUS43 KIND 251409
RWRIN

WEATHER ROUNDUP FOR INDIANA
NATIONAL WEATHER SERVICE INDIANAPOLIS IN
1000 AM EDT SAT OCT 25 2014

NOTE: "FAIR" INDICATES FEW OR NO CLOUDS BELOW 12,000 FEET WITH NO
SIGNIFICANT WEATHER AND/OR OBSTRUCTIONS TO VISIBILITY.

* - STATION DOES NOT REPORT WEATHER SUCH AS PRECIPITATION OR FOG.

+ - STATION NOT QUALITY CONTROLLED BY THE NATIONAL WEATHER SERVICE.
    USE DATA WITH CAUTION...ESPECIALLY DEWPOINT AND RELATIVE
    HUMIDITY OBSERVATIONS.

INZ001>003-010>013-019-020-251500-
NORTHWEST INDIANA

CITY           SKY/WX    TMP DP  RH WIND       PRES   REMARKS
GARY /AIRPORT/ MOSUNNY   59  55  88 SW8       29.93S FOG
KNOX *+        CLOUDY    53  51  94 W6        29.93S VSB 1/2
LA PORTE +     FOG       56  56 100 W9        29.94R VSB 1
MICHIGAN CITY+ CLOUDY    55  54  94 SW7       29.93S FOG
MONTICELLO +   SUNNY     55  53  91 W7        29.95R
RENSSELAER +   FOG       54  54 100 W7        29.96S VSB 1/4
VALPARAISO     CLOUDY    54  53  97 W8        29.94S FOG

$$

LMZ046-743>745-251500-
SOUTHERN LAKE MICHIGAN

STATION/POSITION TIME  TEMP WIND        PRES
                       AIR  DIR/SP/G
                 (UTC) (F)  (DEG/KT/KT) (MB)
MICHIGAN CITY    1400   55  210/ 13/ 15   N/A

$$

INZ004-005-014>016-021>024-251500-
NORTH CENTRAL INDIANA

CITY           SKY/WX    TMP DP  RH WIND       PRES   REMARKS
ELKHART        CLOUDY    55  54  94 W8        29.92R FOG
GOSHEN         MOSUNNY   55  52  89 W8        29.91S FOG
LOGANSPORT +   SUNNY     54  52  94 W7        29.95S
ROCHESTER +    MOSUNNY   57  54  88 SW5       29.93F FOG
SOUTH BEND     CLOUDY    56  53  90 W8        29.93R FOG
WARSAW +       MOSUNNY   54  52  94 W7        29.92S FOG

$$

INZ006>009-017-018-025>027-251500-
NORTHEAST INDIANA

CITY           SKY/WX    TMP DP  RH WIND       PRES   REMARKS
ANGOLA *+      CLOUDY    55  48  76 W6        29.88F
AUBURN +       MOSUNNY   55  52  88 SW8       29.91F HAZE
FORT WAYNE     PTSUNNY   57  52  83 SW9       29.93S
HUNTINGTON +   MOSUNNY  N/A N/A N/A SW7       29.93S

$$

INZ028-029-035-036-043>045-051>053-251500-
WEST CENTRAL INDIANA

CITY           SKY/WX    TMP DP  RH WIND       PRES   REMARKS
CRAWFORDSVL +  SUNNY     57  54  88 SW6       29.98
GREENCASTLE +  MOSUNNY   57  54  88 CALM      30.00S
LAFAYETTE      SUNNY     54  52  93 W5        29.97R
TERRE HAUTE    MOSUNNY   58  54  86 SW7       30.00S

$$

INZ030>032-037>040-046>048-054>057-064-065-251500-
CENTRAL INDIANA

CITY           SKY/WX    TMP DP  RH WIND       PRES   REMARKS
ANDERSON       MOSUNNY   57  50  77 SW10      29.98S
CP ATTERBURY + CLOUDY    59  52  77 W5        30.00S
FRANKFORT +    SUNNY     58  58 100 SW8       29.98S
INDIANAPOLIS   MOSUNNY   57  52  83 SW8       29.97S
-EAGLE CREEK   SUNNY     58  53  84 VRB5      29.97S
KOKOMO *+      MOSUNNY   57  52  82 W10       29.96S
MARION +       MOSUNNY   57  52  83 W9        29.96S
MT COMFORT *+  PTSUNNY   57  54  88 SW7       29.98S
SHELBYVILLE    CLOUDY    57  52  83 SW7       29.98S
ZIONSVILLE +   SUNNY     59  52  77 W8        29.98S

$$

INZ033-034-041-042-049-050-058-059-251500-
EAST CENTRAL INDIANA

CITY           SKY/WX    TMP DP  RH WIND       PRES   REMARKS
MUNCIE         MOSUNNY   58  52  80 SW9       29.95S

$$

INZ060-061-067>069-081>083-085>088-251500-
SOUTHWEST INDIANA

CITY           SKY/WX    TMP DP  RH WIND       PRES   REMARKS
EVANSVILLE     CLOUDY    61  55  81 SW6       30.04R
HUNTINGBURG *+ MOSUNNY   59  54  82 W6        30.04R
WASHINGTON +   SUNNY     61  57  85 W8        30.01S

$$

INZ062-063-066-070>080-084-089>092-251500-
SOUTH CENTRAL AND SOUTHEAST INDIANA

CITY           SKY/WX    TMP DP  RH WIND       PRES   REMARKS
BEDFORD +      MOSUNNY   59  54  82 SW7       30.01
BLOOMINGTON    CLOUDY    59  54  83 W7        30.01R
NORTH VERNON + CLOUDY    57  57 100 SW5       30.01

$$




USA.gov is the U.S. government's official web portal to all federal, state and local government web resources and services.